Date String (YYYY-MM-DD hh:mm:ss) UTC,Instrument flags,Ambient pressure (hPa),Sample flow (lpm),Bypass flow (lpm),Sample temperature (°C),Ambient temperature (°C),ASC tube jacket temperature (°C),LED temperature (°C),Box temperature (°C),Sample RH (%),Span deviation,Mass concentration (μg/m³),Mass concentration (μg/m³),Mass concentration (μg/m³)
DateTimeUTC,F1_M11,P_M11,Q1_M11,Q2_M11,T1_M11,T2_M11,T3_M11,T4_M11,T5_M11,U1_M11,ZSPAN_M11,X0_M11,X2_M11,X1_M11
2023-02-06 19:00:00,,0819.5,5.01,0.00,23.0,21.8,00.0,31.7,24.9,12.7,0000.0,0011.13,0005.03,0004.60
2023-02-06 19:01:00,,0819.5,4.97,0.00,23.0,21.8,00.0,31.7,24.8,13.1,0000.0,0011.34,0005.06,0004.63
2023-02-06 19:02:00,,0819.4,4.97,0.00,23.0,21.8,00.0,31.8,24.9,12.8,0000.0,0011.96,0005.06,0004.66
2023-02-06 19:03:00,,0819.4,4.99,0.00,23.0,21.8,00.0,31.8,24.9,12.4,0000.0,0012.73,0005.05,0004.66
2023-02-06 19:04:00,,0819.4,5.01,0.00,23.0,21.7,00.0,31.8,24.9,11.5,0000.0,0012.50,0005.01,0004.64
2023-02-06 19:05:00,,0819.3,4.98,0.00,23.0,21.7,00.0,31.8,24.8,11.3,0000.0,0011.49,0005.03,0004.61
2023-02-06 19:06:00,,0819.3,4.97,0.00,23.0,21.7,00.0,31.8,24.8,11.8,0000.0,0011.29,0005.03,0004.61
2023-02-06 19:07:00,,0819.2,5.03,0.00,23.0,21.7,00.0,31.8,24.9,12.0,0000.0,0010.95,0005.09,0004.64
2023-02-06 19:08:00,,0819.2,4.97,0.00,23.0,21.7,00.0,31.8,24.9,12.3,0000.0,0010.49,0005.18,0004.69
2023-02-06 19:09:00,,0819.2,4.99,0.00,23.0,21.8,00.0,31.8,24.9,12.3,0000.0,0010.81,0005.21,0004.72
2023-02-06 19:10:00,,0819.3,4.96,0.00,23.0,21.8,00.0,31.8,24.9,12.1,0000.0,0011.31,0005.24,0004.75
2023-02-06 19:11:00,,0819.2,5.01,0.00,23.0,21.8,00.0,31.8,24.9,12.2,0000.0,0011.29,0005.22,0004.73
2023-02-06 19:12:00,,0819.3,5.04,0.00,23.0,21.8,00.0,31.8,24.9,12.6,0000.0,0011.04,0005.16,0004.70
2023-02-06 19:13:00,,0819.2,4.98,0.00,23.0,21.8,00.0,31.8,24.9,12.1,0000.0,0010.34,0005.11,0004.66
2023-02-06 19:14:00,,0819.3,4.99,0.00,23.0,21.8,00.0,31.8,24.9,12.1,0000.0,0009.55,0005.09,0004.63
2023-02-06 19:15:00,,0819.3,5.02,0.00,23.0,21.6,00.0,31.8,24.8,12.4,0000.0,0009.33,0005.09,0004.62
2023-02-06 19:16:00,,0819.3,5.02,0.00,23.0,21.5,00.0,31.8,24.8,12.8,0000.0,0009.26,0005.07,0004.64
2023-02-06 19:17:00,,0819.3,4.97,0.00,23.0,21.5,00.0,31.8,24.8,12.8,0000.0,0009.21,0005.09,0004.67
2023-02-06 19:18:00,,0819.3,4.97,0.00,22.9,21.5,00.0,31.8,24.7,13.2,0000.0,0009.21,0005.10,0004.68
2023-02-06 19:19:00,,0819.3,4.99,0.00,22.9,21.5,00.0,31.8,24.8,12.3,0000.0,0009.47,0005.09,0004.67
2023-02-06 19:20:00,,0819.3,5.02,0.00,22.9,21.6,00.0,31.8,24.8,12.4,0000.0,0009.06,0005.12,0004.66
2023-02-06 19:21:00,,0819.3,5.02,0.00,22.9,21.6,00.0,31.8,24.8,12.6,0000.0,0008.62,0005.09,0004.65
2023-02-06 19:22:00,,0819.3,4.99,0.00,22.9,21.5,00.0,31.8,24.8,11.6,0000.0,0008.56,0005.03,0004.60
2023-02-06 19:23:00,,0819.3,4.97,0.00,22.9,21.5,00.0,31.8,24.8,12.2,0000.0,0008.53,0004.99,0004.55
2023-02-06 19:24:00,,0819.3,5.00,0.00,22.9,21.6,00.0,31.8,24.8,12.4,0000.0,0008.87,0004.96,0004.51
2023-02-06 19:25:00,,0819.3,5.02,0.00,22.9,21.6,00.0,31.8,24.8,12.4,0000.0,0008.92,0004.91,0004.48
2023-02-06 19:26:00,,0819.2,4.99,0.00,23.0,21.7,00.0,31.8,24.8,11.9,0000.0,0009.02,0004.88,0004.45
2023-02-06 19:27:00,,0819.2,4.95,0.00,23.0,21.7,00.0,31.8,24.8,11.0,0000.0,0009.12,0004.86,0004.41
2023-02-06 19:28:00,,0819.2,5.03,0.00,23.0,21.7,00.0,31.8,24.8,11.4,0000.0,0009.21,0004.77,0004.35
2023-02-06 19:29:00,,0819.2,5.05,0.00,23.0,21.8,00.0,31.8,24.9,11.7,0000.0,0009.47,0004.71,0004.31
2023-02-06 19:30:00,,0819.2,4.95,0.00,23.0,21.8,00.0,31.8,24.9,11.4,0000.0,0009.12,0004.64,0004.26
2023-02-06 19:31:00,,0819.2,5.06,0.00,23.0,21.8,00.0,31.8,24.9,11.5,0000.0,0008.92,0004.57,0004.24
2023-02-06 19:32:00,,0819.2,5.04,0.00,23.0,21.8,00.0,31.8,24.9,10.5,0000.0,0008.89,0004.56,0004.20
2023-02-06 19:33:00,,0819.3,4.97,0.00,23.0,21.9,00.0,31.8,24.9,11.2,0000.0,0008.90,0004.54,0004.17
2023-02-06 19:34:00,,0819.4,5.07,0.00,23.1,21.9,00.0,31.8,24.9,11.3,0000.0,0008.86,0004.50,0004.16
2023-02-06 19:35:00,,0819.4,5.01,0.00,23.1,21.9,00.0,31.8,24.9,11.4,0000.0,0008.66,0004.48,0004.13
2023-02-06 19:36:00,,0819.4,4.97,0.00,23.1,21.9,00.0,31.8,24.9,11.4,0000.0,0008.73,0004.44,0004.10
2023-02-06 19:37:00,,0819.4,4.97,0.00,23.1,21.9,00.0,31.9,24.9,11.6,0000.0,0008.68,0004.39,0004.08
2023-02-06 19:38:00,,0819.4,4.99,0.00,23.1,21.8,00.0,31.9,24.9,11.1,0000.0,0008.95,0004.37,0004.07
2023-02-06 19:39:00,,0819.3,5.00,0.00,23.1,21.7,00.0,31.9,24.9,11.0,0000.0,0009.10,0004.39,0004.07
2023-02-06 19:40:00,,0819.3,5.03,0.00,23.1,21.7,00.0,31.9,24.9,11.3,0000.0,0008.67,0004.39,0004.06
2023-02-06 19:41:00,,0819.4,4.97,0.00,23.1,21.7,00.0,31.9,24.9,11.3,0000.0,0008.68,0004.40,0004.07
2023-02-06 19:42:00,,0819.4,5.05,0.00,23.1,21.7,00.0,31.9,24.9,11.7,0000.0,0009.20,0004.41,0004.08
2023-02-06 19:43:00,,0819.4,5.00,0.00,23.0,21.6,00.0,31.9,24.9,11.8,0000.0,0009.31,0004.40,0004.11
2023-02-06 19:44:00,,0819.4,4.98,0.00,23.0,21.6,00.0,31.9,24.9,12.0,0000.0,0009.29,0004.43,0004.14
2023-02-06 19:45:00,,0819.3,5.01,0.00,23.0,21.6,00.0,31.9,24.9,11.5,0000.0,0009.39,0004.49,0004.17
2023-02-06 19:46:00,,0819.3,5.06,0.00,23.0,21.7,00.0,31.9,24.9,11.0,0000.0,0009.45,0004.53,0004.19
2023-02-06 19:47:00,,0819.3,4.98,0.00,23.0,21.7,00.0,31.9,24.9,10.8,0000.0,0009.09,0004.55,0004.21
2023-02-06 19:48:00,,0819.4,4.97,0.00,23.1,21.8,00.0,31.9,24.9,10.7,0000.0,0008.90,0004.56,0004.21
2023-02-06 19:49:00,,0819.4,5.03,0.00,23.1,21.8,00.0,31.9,24.9,10.8,0000.0,0008.55,0004.55,0004.21
2023-02-06 19:50:00,,0819.4,5.02,0.00,23.1,21.8,00.0,31.9,24.9,10.5,0000.0,0008.38,0004.51,0004.21
2023-02-06 19:51:00,,0819.4,4.99,0.00,23.1,21.9,00.0,31.9,24.9,10.5,0000.0,0008.48,0004.48,0004.19
2023-02-06 19:52:00,,0819.5,4.96,0.00,23.1,21.9,00.0,31.9,24.9,10.5,0000.0,0008.55,0004.48,0004.18
2023-02-06 19:53:00,,0819.5,5.06,0.00,23.1,21.9,00.0,31.9,24.9,10.6,0000.0,0008.12,0004.47,0004.15
2023-02-06 19:54:00,,0819.5,4.98,0.00,23.1,21.9,00.0,31.9,25.0,10.5,0000.0,0008.02,0004.47,0004.13
2023-02-06 19:55:00,,0819.5,4.96,0.00,23.1,21.9,00.0,31.9,25.0,10.5,0000.0,0008.06,0004.46,0004.10
2023-02-06 19:56:00,,0819.5,5.02,0.00,23.1,21.9,00.0,31.9,25.0,10.6,0000.0,0008.10,0004.40,0004.07
2023-02-06 19:57:00,,0819.5,5.04,0.00,23.1,21.9,00.0,31.9,25.0,10.5,0000.0,0008.00,0004.36,0004.04
2023-02-06 19:58:00,,0819.5,4.95,0.00,23.1,21.8,00.0,31.9,25.0,10.6,0000.0,0008.00,0004.36,0004.02
2023-02-06 19:59:00,,0819.5,4.99,0.00,23.1,21.8,00.0,31.9,25.0,11.1,0000.0,0008.13,0004.38,0004.02
